Canby, MN

7:15 PM CST on February 25, 2017 (GMT -0600)
Canby

Weather History for KCNB - January, 2013

Change the Weather History Date:

Thursday, January 3, 2013

  Actual Average (KMML) Record (KMML)
Temperature  
Mean Temperature 14 °F -  
Max Temperature 24 °F 24 °F 46 °F (1964)
Min Temperature 4 °F 5 °F -18 °F (1969)
Degree Days  
Heating Degree Days 51    
Moisture  
Dew Point 11 °F    
Average Humidity 82    
Maximum Humidity 87    
Minimum Humidity 76    
Precipitation  
Precipitation 0.00 in - - ()
Sea Level Pressure  
Sea Level Pressure 30.21 in    
Wind  
Wind Speed 13 mph (West)    
Max Wind Speed 29 mph    
Max Gust Speed 38 mph    
Visibility 10 miles    
Events Snow    
Averages and records for this station are not official NWS values.
T = Trace of Precipitation, MM = Missing Value Source: NWS Daily Summary

Daily Weather History Graph

Daily Weather History Graph

Search for Another Location

Airport or City:

Trip Planner

Search our weather history database for the weather conditions in past years. The results will help you decide how hot, cold, wet, or windy it might be!

Date:

Astronomy

Jan. 03, 2013 Rise Set
Actual Time 8:02 AM CST 4:57 PM CST
Civil Twilight 7:29 AM CST 5:30 PM CST
Nautical Twilight 6:52 AM CST 6:07 PM CST
Astronomical Twilight 6:16 AM CST 6:42 PM CST
Moon 11:52 PM CST (1/3) 10:57 AM CST (1/3)
Length of Visible Light 10h 01m
Length of Day
8h 54m
Waning Gibbous, 65% of the Moon is Illuminated
Jan 3
Waning Gibbous
Jan 4
Last Quarter
Jan 11
New
Jan 18
First Quarter
Jan 26
Full

Hourly Weather History & Observations

Time (CST) Temp. Windchill Dew Point Humidity Pressure Visibility Wind Dir Wind Speed Gust Speed Precip Events Conditions
12:15 AM 10.8 °F -5.0 °F 6.8 °F 84% 30.22 in 10.0 mi NW 13.8 mph 19.6 mph N/A   Clear
12:36 AM 10.0 °F -6.5 °F 6.1 °F 84% 30.22 in 10.0 mi NW 15.0 mph - N/A   Clear
12:55 AM 9.1 °F -7.0 °F 5.4 °F 85% 30.22 in 10.0 mi NW 13.8 mph - N/A   Clear
1:16 AM 9.0 °F -7.9 °F 5.0 °F 84% 30.22 in 10.0 mi NW 15.0 mph - N/A   Clear
1:35 AM 8.4 °F -7.3 °F 4.6 °F 85% 30.23 in 10.0 mi WNW 12.7 mph - N/A   Clear
1:55 AM 8.2 °F -9.4 °F 3.9 °F 83% 30.23 in 10.0 mi WNW 16.1 mph - N/A   Clear
2:16 AM 7.7 °F -10.1 °F 3.4 °F 83% 30.25 in 10.0 mi WNW 16.1 mph - N/A   Clear
2:35 AM 7.5 °F -9.1 °F 3.2 °F 82% 30.26 in 10.0 mi WNW 13.8 mph - N/A   Mostly Cloudy
2:56 AM 7.2 °F -8.9 °F 2.8 °F 82% 30.25 in 10.0 mi WNW 12.7 mph - N/A   Scattered Clouds
3:15 AM 6.4 °F -9.0 °F 2.3 °F 83% 30.26 in 10.0 mi WNW 11.5 mph - N/A   Scattered Clouds
3:35 AM 5.9 °F -9.7 °F 2.1 °F 84% 30.25 in 10.0 mi WNW 11.5 mph - N/A   Clear
3:56 AM 5.9 °F -10.5 °F 1.8 °F 83% 30.26 in 10.0 mi WNW 12.7 mph - N/A   Clear
4:15 AM 5.5 °F -10.2 °F 1.0 °F 82% 30.26 in 10.0 mi WNW 11.5 mph - N/A   Clear
4:35 AM 5.0 °F -10.8 °F 0.9 °F 83% 30.27 in 10.0 mi WNW 11.5 mph - N/A   Clear
4:56 AM 5.5 °F -10.2 °F 1.4 °F 83% 30.27 in 10.0 mi WNW 11.5 mph - N/A   Clear
5:15 AM 5.2 °F -10.6 °F 1.2 °F 84% 30.28 in 10.0 mi WNW 11.5 mph - N/A   Clear
5:36 AM 5.4 °F -9.6 °F 1.6 °F 84% 30.28 in 10.0 mi WNW 10.4 mph - N/A   Clear
5:55 AM 5.7 °F -9.1 °F 1.4 °F 82% 30.28 in 10.0 mi WNW 10.4 mph - N/A   Clear
6:16 AM 5.9 °F -8.0 °F 1.8 °F 83% 30.29 in 10.0 mi WNW 9.2 mph - N/A   Clear
6:35 AM 5.0 °F -9.1 °F 1.0 °F 84% 30.30 in 10.0 mi WNW 9.2 mph - N/A   Clear
6:56 AM 4.6 °F -8.5 °F 0.5 °F 83% 30.29 in 10.0 mi WNW 8.1 mph - N/A   Clear
7:16 AM 4.1 °F -8.0 °F 0.5 °F 85% 30.29 in 10.0 mi WNW 6.9 mph - N/A   Clear
7:35 AM 4.1 °F -8.0 °F 0.5 °F 85% 30.29 in 10.0 mi WNW 6.9 mph - N/A   Clear
7:56 AM 4.3 °F -7.8 °F 1.2 °F 87% 30.29 in 10.0 mi West 6.9 mph - N/A   Scattered Clouds
8:15 AM 6.3 °F -8.4 °F 3.0 °F 87% 30.30 in 10.0 mi West 10.4 mph - N/A   Mostly Cloudy
8:35 AM 9.3 °F -2.8 °F 5.5 °F 85% 30.29 in 10.0 mi WNW 8.1 mph - N/A   Overcast
8:56 AM 11.1 °F -1.6 °F 7.2 °F 84% 30.30 in 10.0 mi West 9.2 mph - N/A Snow Light Snow
9:16 AM 12.2 °F -0.2 °F 8.2 °F 84% 30.30 in 7.0 mi West 9.2 mph - N/A Snow Light Snow
9:35 AM 13.1 °F -1.4 °F 8.8 °F 83% 30.31 in 5.0 mi WNW 12.7 mph - N/A Snow Light Snow
9:55 AM 14.2 °F 0.0 °F 9.9 °F 83% 30.31 in 7.0 mi WNW 12.7 mph 20.7 mph N/A Snow Light Snow
10:36 AM 14.9 °F 3.1 °F 10.9 °F 84% 30.32 in 5.0 mi West 9.2 mph - N/A Snow Light Snow
10:55 AM 15.4 °F 5.6 °F 11.3 °F 84% 30.32 in 5.0 mi West 6.9 mph - N/A Snow Light Snow
11:16 AM 16.5 °F 8.1 °F 11.8 °F 82% 30.30 in 7.0 mi WSW 5.8 mph - N/A Snow Light Snow
11:36 AM 17.4 °F 7.1 °F 12.6 °F 81% 30.29 in 10.0 mi West 8.1 mph - N/A Snow Light Snow
11:55 AM 18.3 °F 5.2 °F 13.1 °F 80% 30.27 in 10.0 mi WNW 12.7 mph - N/A   Overcast
12:15 PM 18.9 °F 8.8 °F 13.5 °F 79% 30.27 in 10.0 mi West 8.1 mph - N/A Snow Light Snow
12:36 PM 19.9 °F 9.3 °F 14.0 °F 78% 30.25 in 10.0 mi West 9.2 mph - N/A   Overcast
12:55 PM 20.3 °F 11.5 °F 14.5 °F 78% 30.24 in 10.0 mi WSW 6.9 mph - N/A   Scattered Clouds
1:15 PM 21.0 °F 10.6 °F 14.9 °F 77% 30.23 in 10.0 mi West 9.2 mph - N/A   Clear
1:36 PM 21.4 °F 10.4 °F 15.1 °F 77% 30.23 in 10.0 mi West 10.4 mph - N/A   Clear
1:55 PM 21.7 °F 10.8 °F 15.3 °F 76% 30.22 in 10.0 mi WSW 10.4 mph - N/A   Clear
2:15 PM 21.4 °F 11.9 °F 15.4 °F 78% 30.22 in 10.0 mi WSW 8.1 mph - N/A   Clear
2:36 PM 21.2 °F 10.1 °F 15.6 °F 79% 30.24 in 10.0 mi WSW 10.4 mph - N/A   Clear
2:56 PM 20.5 °F 9.2 °F 14.7 °F 78% 30.23 in 10.0 mi WSW 10.4 mph - N/A   Clear
3:35 PM 20.7 °F 8.8 °F 15.4 °F 80% 30.22 in 10.0 mi WSW 11.5 mph - N/A   Clear
3:56 PM 20.7 °F 10.2 °F 15.6 °F 81% 30.21 in 10.0 mi WSW 9.2 mph - N/A   Clear
4:15 PM 20.3 °F 9.8 °F 15.6 °F 82% 30.21 in 10.0 mi WSW 9.2 mph - N/A   Clear
4:35 PM 20.1 °F 9.5 °F 15.8 °F 83% 30.20 in 10.0 mi West 9.2 mph - N/A   Clear
4:56 PM 19.9 °F 9.3 °F 15.8 °F 84% 30.20 in 10.0 mi WSW 9.2 mph - N/A   Clear
5:15 PM 20.8 °F 11.2 °F 16.5 °F 83% 30.19 in 10.0 mi West 8.1 mph - N/A   Clear
5:35 PM 21.2 °F 8.9 °F 16.7 °F 83% 30.18 in 10.0 mi WSW 12.7 mph 19.6 mph N/A   Clear
5:55 PM 21.0 °F 7.1 °F 16.5 °F 83% 30.17 in 10.0 mi WSW 16.1 mph 20.7 mph N/A   Clear
6:15 PM 21.2 °F 5.6 °F 16.7 °F 83% 30.16 in 10.0 mi WSW 20.7 mph 27.6 mph N/A   Clear
6:35 PM 21.6 °F 6.1 °F 16.7 °F 82% 30.15 in 10.0 mi WSW 20.7 mph 28.8 mph N/A   Clear
6:56 PM 21.4 °F 5.5 °F 16.9 °F 83% 30.14 in 10.0 mi SW 21.9 mph 28.8 mph N/A   Clear
7:15 PM 21.7 °F 5.2 °F 17.2 °F 83% 30.13 in 10.0 mi SW 24.2 mph 31.1 mph N/A   Clear
7:35 PM 21.7 °F 5.6 °F 17.6 °F 84% 30.12 in 10.0 mi SW 23.0 mph 29.9 mph N/A   Clear
7:56 PM 22.1 °F 6.4 °F 17.4 °F 82% 30.12 in 10.0 mi WSW 21.9 mph 28.8 mph N/A   Clear
8:16 PM 22.3 °F 6.3 °F 17.6 °F 82% 30.11 in 10.0 mi WSW 23.0 mph 29.9 mph N/A   Clear
8:35 PM 22.5 °F 7.6 °F 17.4 °F 81% 30.10 in 10.0 mi WSW 19.6 mph 32.2 mph N/A   Clear
8:56 PM 22.5 °F 6.5 °F 17.6 °F 82% 30.09 in 10.0 mi WSW 23.0 mph 31.1 mph N/A   Clear
9:15 PM 23.0 °F 6.9 °F 17.6 °F 80% 30.08 in 10.0 mi SW 24.2 mph 32.2 mph N/A   Clear
9:35 PM 22.8 °F 5.7 °F 17.6 °F 80% 30.06 in 10.0 mi WSW 27.6 mph 34.5 mph N/A   Clear
9:56 PM 23.7 °F 9.7 °F 17.6 °F 77% 30.07 in 10.0 mi SW 18.4 mph 33.4 mph N/A   Clear
10:15 PM 23.4 °F 8.8 °F 17.4 °F 78% 30.07 in 10.0 mi SW 19.6 mph 29.9 mph N/A   Clear
10:35 PM 23.2 °F 18.7 °F 17.4 °F 79% 30.08 in 10.0 mi SSW 3.5 mph - N/A   Clear
10:55 PM 24.8 °F 8.4 °F 18.9 °F 78% 30.06 in 10.0 mi WSW 27.6 mph 33.4 mph N/A   Clear
11:16 PM 23.9 °F 6.9 °F 18.5 °F 80% 30.05 in 10.0 mi WSW 28.8 mph 34.5 mph N/A   Clear
11:35 PM 23.4 °F 6.2 °F 18.3 °F 81% 30.03 in 10.0 mi WSW 28.8 mph 38.0 mph N/A   Clear
11:55 PM 23.5 °F 6.7 °F 18.1 °F 80% 30.03 in 10.0 mi WSW 27.6 mph 36.8 mph N/A   Clear